Simultaneous Nadir Overpasses (SNOs) Predictions

Prediction of SNOs between GOES-14 and NOAA-20 Satellite Orbit:

Table of predicted SNOs for the next 14.0 days since TLE Epoch: 10/4/2019
Index Date Time (GOES-14) GOES-14 Lat,Lon NOAA-20 Lat,Lon Distance(km) Time Diff (sec)
1 10/05/2019 20:20:17 -0.27,-104.22 -0.29,-104.21 2.49 80
2 10/08/2019 08:26:02 0.25,-104.23 0.39,-104.96 83.59 80
3 10/09/2019 08:04:36 0.26,-104.21 -0.56,-100.42 431.79 80
4 10/10/2019 20:26:34 -0.24,-104.21 -0.59,-105.73 174.29 80
5 10/11/2019 20:10:29 -0.25,-104.22 0.42,-101.20 343.17 80
6 10/13/2019 08:32:19 0.23,-104.25 0.70,-106.49 254.95 80
7 10/14/2019 08:10:53 0.24,-104.24 -0.25,-101.94 260.69 80
8 10/15/2019 20:32:50 -0.22,-104.20 -0.89,-107.26 348.66 80
9 10/16/2019 20:16:46 -0.23,-104.20 0.12,-102.73 168.74 80
10 10/18/2019 08:38:34 0.20,-104.26 1.05,-108.00 426.51 80




NCC Satellite Simultaneous Nadir Overpasses (SNOs) Prediction Service
